Time,TemperatureF,DewpointF,PressureIn,WindDirection,WindDirectionDegrees,WindSpeedMPH,WindSpeedGustMPH,Humidity,HourlyPrecipIn,Conditions,Clouds,dailyrainin,SoftwareType,DateUTC
2013-08-29 00:00:00,76.2,72.0,29.85,West,277,0.0,3.0,86,0.00,,,0.00,weatherlink.com 1.10,2013-08-29 04:00:00,
2013-08-29 00:15:00,76.0,71.0,29.84,SSW,211,0.0,2.0,85,0.00,,,0.00,weatherlink.com 1.10,2013-08-29 04:15:00,
2013-08-29 00:30:00,76.0,71.0,29.84,SSW,199,0.0,2.0,85,0.00,,,0.00,weatherlink.com 1.10,2013-08-29 04:30:00,
2013-08-29 00:45:00,75.6,71.0,29.84,SSW,199,0.0,3.0,85,0.00,,,0.00,weatherlink.com 1.10,2013-08-29 04:45:00,
2013-08-29 01:00:00,75.3,71.0,29.84,ESE,120,0.0,2.0,85,0.00,,,0.00,weatherlink.com 1.10,2013-08-29 05:00:00,
2013-08-29 01:15:00,75.5,71.0,29.84,SE,138,0.0,3.0,85,0.00,,,0.00,weatherlink.com 1.10,2013-08-29 05:15:00,
2013-08-29 01:30:00,75.4,71.0,29.84,SSE,160,1.0,3.0,85,0.00,,,0.00,weatherlink.com 1.10,2013-08-29 05:30:00,
2013-08-29 01:45:00,74.8,70.0,29.84,ENE,71,1.0,2.0,86,0.00,,,0.00,weatherlink.com 1.10,2013-08-29 05:45:00,
2013-08-29 02:00:00,74.1,70.0,29.83,East,92,0.0,2.0,88,0.00,,,0.00,weatherlink.com 1.10,2013-08-29 06:00:00,
2013-08-29 02:15:00,73.6,70.0,29.83,East,92,0.0,1.0,88,0.00,,,0.00,weatherlink.com 1.10,2013-08-29 06:15:00,
2013-08-29 02:30:00,73.1,70.0,29.83,East,98,0.0,1.0,89,0.00,,,0.00,weatherlink.com 1.10,2013-08-29 06:30:00,
2013-08-29 02:45:00,72.8,70.0,29.84,East,98,0.0,0.0,89,0.00,,,0.00,weatherlink.com 1.10,2013-08-29 06:45:00,
2013-08-29 03:00:00,72.7,69.0,29.84,East,98,0.0,1.0,89,0.00,,,0.00,weatherlink.com 1.10,2013-08-29 07:00:00,
2013-08-29 03:15:00,72.5,70.0,29.84,NNE,19,0.0,3.0,90,0.00,,,0.00,weatherlink.com 1.10,2013-08-29 07:15:00,
2013-08-29 03:30:00,72.2,69.0,29.84,North,5,0.0,3.0,90,0.00,,,0.00,weatherlink.com 1.10,2013-08-29 07:30:00,
2013-08-29 03:45:00,72.0,69.0,29.84,SW,230,0.0,1.0,90,0.00,,,0.00,weatherlink.com 1.10,2013-08-29 07:45:00,
2013-08-29 04:00:00,72.1,69.0,29.84,SW,230,0.0,1.0,90,0.00,,,0.00,weatherlink.com 1.10,2013-08-29 08:00:00,
2013-08-29 04:15:00,71.8,69.0,29.84,SW,230,0.0,1.0,91,0.00,,,0.00,weatherlink.com 1.10,2013-08-29 08:15:00,
2013-08-29 04:30:00,71.3,69.0,29.84,SW,230,0.0,0.0,91,0.00,,,0.00,weatherlink.com 1.10,2013-08-29 08:30:00,
2013-08-29 04:45:00,71.0,69.0,29.84,SW,230,0.0,0.0,92,0.00,,,0.00,weatherlink.com 1.10,2013-08-29 08:45:00,
2013-08-29 05:00:00,70.6,69.0,29.85,SW,230,0.0,0.0,93,0.00,,,0.00,weatherlink.com 1.10,2013-08-29 09:00:00,
2013-08-29 05:15:00,70.5,68.0,29.85,SW,230,0.0,2.0,93,0.00,,,0.00,weatherlink.com 1.10,2013-08-29 09:15:00,
2013-08-29 05:30:00,70.5,69.0,29.85,SW,230,0.0,0.0,94,0.00,,,0.00,weatherlink.com 1.10,2013-08-29 09:30:00,
2013-08-29 05:45:00,70.4,69.0,29.85,SW,230,0.0,0.0,94,0.00,,,0.00,weatherlink.com 1.10,2013-08-29 09:45:00,
2013-08-29 06:00:00,70.3,69.0,29.85,SW,230,0.0,0.0,94,0.00,,,0.00,weatherlink.com 1.10,2013-08-29 10:00:00,
2013-08-29 06:15:00,70.1,68.0,29.85,SW,230,0.0,0.0,94,0.00,,,0.00,weatherlink.com 1.10,2013-08-29 10:15:00,
2013-08-29 06:30:00,70.1,68.0,29.86,SW,230,0.0,0.0,94,0.00,,,0.00,weatherlink.com 1.10,2013-08-29 10:30:00,
2013-08-29 06:45:00,70.3,69.0,29.86,SW,230,0.0,0.0,94,0.00,,,0.00,weatherlink.com 1.10,2013-08-29 10:45:00,
2013-08-29 07:00:00,70.3,69.0,29.87,SW,230,0.0,0.0,94,0.00,,,0.00,weatherlink.com 1.10,2013-08-29 11:00:00,
2013-08-29 07:15:00,70.2,69.0,29.88,SW,230,0.0,0.0,95,0.00,,,0.00,weatherlink.com 1.10,2013-08-29 11:15:00,
2013-08-29 07:30:00,70.5,69.0,29.88,SW,230,0.0,0.0,95,0.00,,,0.00,weatherlink.com 1.10,2013-08-29 11:30:00,
2013-08-29 07:45:00,70.9,70.0,29.89,SW,230,0.0,1.0,95,0.00,,,0.00,weatherlink.com 1.10,2013-08-29 11:45:00,
2013-08-29 08:00:00,71.2,70.0,29.89,SW,230,0.0,0.0,95,0.00,,,0.00,weatherlink.com 1.10,2013-08-29 12:00:00,
2013-08-29 08:15:00,71.8,70.0,29.90,SW,230,0.0,1.0,95,0.00,,,0.00,weatherlink.com 1.10,2013-08-29 12:15:00,
2013-08-29 08:30:00,72.5,71.0,29.90,SW,230,0.0,0.0,94,0.00,,,0.00,weatherlink.com 1.10,2013-08-29 12:30:00,
2013-08-29 08:45:00,73.9,72.0,29.90,SW,230,0.0,0.0,92,0.00,,,0.00,weatherlink.com 1.10,2013-08-29 12:45:00,
2013-08-29 09:00:00,75.5,72.0,29.91,NNW,334,0.0,3.0,88,0.00,,,0.00,weatherlink.com 1.10,2013-08-29 13:00:00,
2013-08-29 09:15:00,76.4,72.0,29.92,NE,36,0.0,4.0,86,0.00,,,0.00,weatherlink.com 1.10,2013-08-29 13:15:00,
2013-08-29 09:30:00,77.1,72.0,29.92,East,82,0.0,4.0,84,0.00,,,0.00,weatherlink.com 1.10,2013-08-29 13:30:00,
2013-08-29 09:45:00,78.4,72.0,29.92,NE,43,3.0,7.0,81,0.00,,,0.00,weatherlink.com 1.10,2013-08-29 13:45:00,
2013-08-29 10:00:00,78.6,73.0,29.92,ESE,116,2.0,6.0,83,0.00,,,0.00,weatherlink.com 1.10,2013-08-29 14:00:00,
2013-08-29 10:15:00,78.6,72.0,29.93,NE,47,0.0,3.0,81,0.00,,,0.00,weatherlink.com 1.10,2013-08-29 14:15:00,
2013-08-29 10:30:00,78.5,73.0,29.93,East,79,3.0,3.0,83,0.00,,,0.00,weatherlink.com 1.10,2013-08-29 14:30:00,
2013-08-29 10:45:00,79.2,73.0,29.93,ENE,76,1.0,5.0,81,0.00,,,0.00,weatherlink.com 1.10,2013-08-29 14:45:00,
2013-08-29 11:00:00,81.0,73.0,29.94,NNW,344,2.0,7.0,77,0.00,,,0.00,weatherlink.com 1.10,2013-08-29 15:00:00,
2013-08-29 11:15:00,81.3,73.0,29.94,NNE,30,2.0,4.0,76,0.00,,,0.00,weatherlink.com 1.10,2013-08-29 15:15:00,
2013-08-29 11:30:00,79.8,73.0,29.94,North,360,0.0,5.0,80,0.00,,,0.00,weatherlink.com 1.10,2013-08-29 15:30:00,
2013-08-29 11:46:00,79.3,73.0,29.94,NNE,29,0.0,3.0,82,0.00,,,0.00,weatherlink.com 1.10,2013-08-29 15:46:00,
2013-08-29 12:01:00,79.2,73.0,29.94,NNW,337,0.0,2.0,82,0.00,,,0.00,weatherlink.com 1.10,2013-08-29 16:01:00,
2013-08-29 12:16:00,79.1,74.0,29.94,NNW,337,0.0,1.0,83,0.00,,,0.00,weatherlink.com 1.10,2013-08-29 16:16:00,
2013-08-29 12:31:00,80.0,74.0,29.94,NW,316,3.0,3.0,82,0.00,,,0.00,weatherlink.com 1.10,2013-08-29 16:31:00,
2013-08-29 12:46:00,83.4,75.0,29.93,NNE,22,5.0,8.0,75,0.00,,,0.00,weatherlink.com 1.10,2013-08-29 16:46:00,
2013-08-29 13:01:00,85.2,74.0,29.93,NE,36,2.0,6.0,70,0.00,,,0.00,weatherlink.com 1.10,2013-08-29 17:01:00,
2013-08-29 13:16:00,87.1,74.0,29.93,SSE,148,0.0,5.0,65,0.00,,,0.00,weatherlink.com 1.10,2013-08-29 17:16:00,
2013-08-29 13:31:00,87.3,74.0,29.93,ENE,66,1.0,2.0,64,0.00,,,0.00,weatherlink.com 1.10,2013-08-29 17:31:00,
2013-08-29 13:46:00,87.5,73.0,29.93,ENE,65,2.0,6.0,63,0.00,,,0.00,weatherlink.com 1.10,2013-08-29 17:46:00,
2013-08-29 14:01:00,88.3,74.0,29.92,NW,315,0.0,7.0,62,0.00,,,0.00,weatherlink.com 1.10,2013-08-29 18:01:00,
2013-08-29 14:16:00,89.0,74.0,29.92,ENE,57,4.0,7.0,61,0.00,,,0.00,weatherlink.com 1.10,2013-08-29 18:16:00,
2013-08-29 14:31:00,87.4,74.0,29.92,North,351,0.0,4.0,64,0.00,,,0.00,weatherlink.com 1.10,2013-08-29 18:31:00,
2013-08-29 14:46:00,88.9,73.0,29.91,South,169,0.0,4.0,60,0.00,,,0.00,weatherlink.com 1.10,2013-08-29 18:46:00,
2013-08-29 15:01:00,89.1,74.0,29.91,NNE,19,1.0,4.0,62,0.00,,,0.00,weatherlink.com 1.10,2013-08-29 19:01:00,
2013-08-29 15:16:00,88.9,74.0,29.91,NNE,19,4.0,5.0,62,0.00,,,0.00,weatherlink.com 1.10,2013-08-29 19:16:00,
2013-08-29 15:46:00,88.1,73.0,29.91,SW,217,0.0,4.0,62,0.00,,,0.00,weatherlink.com 1.10,2013-08-29 19:46:00,
2013-08-29 16:01:00,88.7,75.0,29.90,SE,142,0.0,4.0,64,0.00,,,0.00,weatherlink.com 1.10,2013-08-29 20:01:00,
2013-08-29 16:16:00,88.6,74.0,29.91,ENE,78,1.0,5.0,62,0.00,,,0.00,weatherlink.com 1.10,2013-08-29 20:16:00,
2013-08-29 16:31:00,87.6,74.0,29.91,North,5,0.0,8.0,64,0.00,,,0.00,weatherlink.com 1.10,2013-08-29 20:31:00,
2013-08-29 16:46:00,87.7,73.0,29.91,WSW,252,0.0,4.0,62,0.00,,,0.00,weatherlink.com 1.10,2013-08-29 20:46:00,
2013-08-29 17:01:00,88.0,73.0,29.91,NE,51,1.0,5.0,62,0.00,,,0.00,weatherlink.com 1.10,2013-08-29 21:01:00,
2013-08-29 17:16:00,87.2,73.0,29.91,SSW,192,2.0,8.0,63,0.00,,,0.00,weatherlink.com 1.10,2013-08-29 21:16:00,
2013-08-29 17:31:00,87.3,74.0,29.91,NW,307,0.0,3.0,65,0.00,,,0.00,weatherlink.com 1.10,2013-08-29 21:31:00,
2013-08-29 17:46:00,86.3,73.0,29.92,NNW,344,1.0,7.0,65,0.00,,,0.00,weatherlink.com 1.10,2013-08-29 21:46:00,
2013-08-29 18:01:00,84.3,73.0,29.92,SSW,195,0.0,3.0,68,0.00,,,0.00,weatherlink.com 1.10,2013-08-29 22:01:00,
2013-08-29 18:16:00,82.6,73.0,29.92,East,85,0.0,3.0,72,0.00,,,0.00,weatherlink.com 1.10,2013-08-29 22:16:00,
2013-08-29 18:31:00,82.0,72.0,29.92,North,349,1.0,6.0,71,0.00,,,0.00,weatherlink.com 1.10,2013-08-29 22:31:00,
2013-08-29 18:46:00,81.9,72.0,29.92,NE,38,1.0,6.0,73,0.00,,,0.00,weatherlink.com 1.10,2013-08-29 22:46:00,
2013-08-29 19:01:00,81.4,72.0,29.92,NNE,29,1.0,6.0,72,0.00,,,0.00,weatherlink.com 1.10,2013-08-29 23:01:00,
2013-08-29 19:16:00,80.9,72.0,29.93,East,99,1.0,1.0,75,0.00,,,0.00,weatherlink.com 1.10,2013-08-29 23:16:00,
2013-08-29 19:31:00,80.0,72.0,29.93,East,99,0.0,1.0,76,0.00,,,0.00,weatherlink.com 1.10,2013-08-29 23:31:00,
2013-08-29 19:46:00,78.6,72.0,29.94,East,99,0.0,0.0,79,0.00,,,0.00,weatherlink.com 1.10,2013-08-29 23:46:00,
2013-08-29 20:01:00,77.2,71.0,29.95,East,99,0.0,1.0,82,0.00,,,0.00,weatherlink.com 1.10,2013-08-30 00:01:00,
2013-08-29 20:16:00,76.0,71.0,29.96,East,101,0.0,2.0,85,0.00,,,0.00,weatherlink.com 1.10,2013-08-30 00:16:00,
2013-08-29 20:31:00,75.2,71.0,29.96,NNE,16,0.0,4.0,85,0.00,,,0.00,weatherlink.com 1.10,2013-08-30 00:31:00,
2013-08-29 20:47:00,74.7,70.0,29.97,NNE,16,0.0,1.0,86,0.00,,,0.00,weatherlink.com 1.10,2013-08-30 00:47:00,
2013-08-29 21:02:00,74.1,70.0,29.97,NE,49,1.0,3.0,86,0.00,,,0.00,weatherlink.com 1.10,2013-08-30 01:02:00,
2013-08-29 21:17:00,73.8,69.0,29.98,East,88,1.0,4.0,86,0.00,,,0.00,weatherlink.com 1.10,2013-08-30 01:17:00,
2013-08-29 21:32:00,73.5,69.0,29.98,NE,36,0.0,3.0,86,0.00,,,0.00,weatherlink.com 1.10,2013-08-30 01:32:00,
2013-08-29 21:47:00,73.1,69.0,29.98,ENE,64,0.0,2.0,87,0.00,,,0.00,weatherlink.com 1.10,2013-08-30 01:47:00,
2013-08-29 22:02:00,72.7,69.0,29.99,North,350,0.0,1.0,88,0.00,,,0.00,weatherlink.com 1.10,2013-08-30 02:02:00,
2013-08-29 22:17:00,72.3,69.0,29.99,North,350,0.0,0.0,89,0.00,,,0.00,weatherlink.com 1.10,2013-08-30 02:17:00,
2013-08-29 22:32:00,72.1,69.0,30.00,North,350,0.0,1.0,90,0.00,,,0.00,weatherlink.com 1.10,2013-08-30 02:32:00,
2013-08-29 22:47:00,71.9,69.0,30.00,North,350,0.0,0.0,91,0.00,,,0.00,weatherlink.com 1.10,2013-08-30 02:47:00,
2013-08-29 23:02:00,71.7,69.0,30.00,North,350,0.0,0.0,91,0.00,,,0.00,weatherlink.com 1.10,2013-08-30 03:02:00,
2013-08-29 23:17:00,71.3,69.0,30.00,North,350,0.0,0.0,91,0.00,,,0.00,weatherlink.com 1.10,2013-08-30 03:17:00,
2013-08-29 23:32:00,70.9,69.0,29.99,North,350,0.0,0.0,92,0.00,,,0.00,weatherlink.com 1.10,2013-08-30 03:32:00,
2013-08-29 23:47:00,70.7,69.0,30.00,NW,325,0.0,2.0,93,0.00,,,0.00,weatherlink.com 1.10,2013-08-30 03:47:00,